QPF
0.11 0.18 0.18 0.15 0.12 0.10 0.09 0.09 0.08 0.11 0.12 0.10 0.09 0.09 0.08 0.07 0.07 0.08 0.08 0.09 0.09 0.10 0.11 0.10 0.10 0.11 0.12 0.11 0.10 0.10 0.10 0.10 0.10 0.09 0.08 0.07 0.05 0.04 0.03 0.04 0.05 0.07 0.09
0.15 0.21 0.21 0.13 0.09 0.08 0.11 0.11 0.13 0.15 0.12 0.11 0.12 0.11 0.07 0.06 0.07 0.06 0.05 0.07 0.08 0.08 0.08 0.08 0.09 0.09 0.10 0.11 0.13 0.12 0.11 0.10 0.10 0.10 0.08 0.06 0.04 0.02 0.03 0.04 0.05 0.06 0.11
0.14 0.16 0.12 0.10 0.09 0.09 0.11 0.13 0.12 0.12 0.12 0.12 0.10 0.08 0.07 0.06 0.06 0.05 0.04 0.04 0.05 0.06 0.07 0.08 0.09 0.10 0.11 0.12 0.13 0.13 0.12 0.12 0.11 0.10 0.09 0.08 0.05 0.03 0.02 0.03 0.03 0.04 0.09
0.08 0.08 0.07 0.07 0.09 0.08 0.09 0.10 0.12 0.14 0.13 0.10 0.08 0.06 0.05 0.05 0.05 0.04 0.03 0.04 0.06 0.07 0.08 0.09 0.09 0.09 0.10 0.10 0.13 0.14 0.13 0.11 0.10 0.11 0.09 0.08 0.07 0.05 0.03 0.02 0.02 0.04 0.05
0.05 0.06 0.06 0.07 0.08 0.09 0.07 0.07 0.09 0.10 0.09 0.08 0.07 0.07 0.06 0.06 0.05 0.04 0.05 0.06 0.07 0.07 0.08 0.09 0.09 0.09 0.09 0.08 0.09 0.10 0.10 0.10 0.10 0.09 0.09 0.09 0.07 0.06 0.04 0.03 0.03 0.04 0.03
0.04 0.05 0.06 0.07 0.08 0.09 0.09 0.09 0.08 0.10 0.10 0.10 0.10 0.10 0.09 0.08 0.06 0.06 0.06 0.05 0.04 0.05 0.06 0.07 0.08 0.08 0.07 0.07 0.07 0.07 0.07 0.08 0.10 0.11 0.09 0.08 0.06 0.05 0.04 0.04 0.07 0.06 0.05
0.05 0.05 0.06 0.07 0.08 0.09 0.14 0.14 0.11 0.13 0.14 0.12 0.12 0.11 0.09 0.08 0.06 0.05 0.05 0.03 0.03 0.03 0.03 0.04 0.06 0.08 0.08 0.09 0.09 0.07 0.07 0.06 0.06 0.08 0.09 0.08 0.06 0.05 0.05 0.05 0.06 0.06 0.06
0.05 0.06 0.07 0.08 0.09 0.09 0.10 0.12 0.13 0.12 0.10 0.09 0.11 0.11 0.11 0.08 0.06 0.03 0.02 0.01 0.01 0.01 0.01 0.02 0.03 0.03 0.04 0.05 0.06 0.06 0.06 0.06 0.05 0.05 0.06 0.09 0.09 0.07 0.06 0.05 0.05 0.05 0.05
0.04 0.05 0.07 0.09 0.09 0.07 0.07 0.08 0.07 0.05 0.05 0.06 0.07 0.08 0.08 0.07 0.07 0.04 0.01 0.01 0.01 0.01 0.01 0.01 0.01 0.02 0.03 0.04 0.05 0.04 0.05 0.05 0.05 0.04 0.03 0.03 0.05 0.06 0.06 0.06 0.05 0.05 0.05
0.06 0.05 0.05 0.09 0.08 0.06 0.05 0.06 0.06 0.05 0.04 0.04 0.04 0.04 0.04 0.05 0.06 0.04 0.01 0.01 0.01 0.01 0.02 0.02 0.02 0.02 0.02 0.03 0.04 0.04 0.04 0.04 0.05 0.04 0.03 0.03 0.03 0.04 0.04 0.03 0.04 0.04 0.05
0.05 0.05 0.04 0.08 0.07 0.06 0.06 0.07 0.06 0.06 0.04 0.03 0.02 0.02 0.01 0.01 0.01 0.02 0.02 0.01 0.02 0.02 0.02 0.02 0.02 0.02 0.02 0.04 0.05 0.06 0.06 0.05 0.05 0.05 0.05 0.04 0.03 0.02 0.02 0.02 0.02 0.03 0.04
0.02 0.03 0.03 0.06 0.06 0.06 0.07 0.08 0.05 0.04 0.03 0.02 0.01 0.01 0.00 0.00 0.00 0.00 0.00 0.01 0.01 0.01 0.01 0.01 0.01 0.02 0.02 0.03 0.04 0.05 0.06 0.06 0.06 0.05 0.05 0.05 0.03 0.02 0.02 0.02 0.01 0.02 0.02
0.02 0.02 0.03 0.04 0.04 0.05 0.06 0.05 0.03 0.02 0.01 0.01 0.01 0.01 0.01 0.01 0.00 0.00 0.00 0.01 0.01 0.01 0.01 0.01 0.01 0.01 0.01 0.02 0.03 0.03 0.03 0.03 0.04 0.04 0.04 0.05 0.04 0.03 0.03 0.02 0.02 0.02 0.03
0.02 0.02 0.02 0.02 0.03 0.03 0.03 0.03 0.02 0.01 0.01 0.01 0.01 0.02 0.01 0.01 0.01 0.01 0.01 0.01 0.01 0.01 0.01 0.01 0.01 0.02 0.02 0.02 0.03 0.02 0.01 0.02 0.03 0.04 0.05 0.06 0.06 0.06 0.05 0.03 0.02 0.02 0.03
0.02 0.02 0.02 0.02 0.02 0.02 0.02 0.02 0.02 0.01 0.01 0.01 0.01 0.01 0.01 0.01 0.01 0.01 0.01 0.01 0.02 0.02 0.02 0.02 0.02 0.02 0.02 0.02 0.02 0.01 0.02 0.02 0.03 0.04 0.04 0.05 0.06 0.06 0.06 0.03 0.02 0.02 0.03
0.03 0.02 0.03 0.03 0.02 0.01 0.01 0.01 0.02 0.01 0.01 0.01 0.01 0.01 0.01 0.01 0.01 0.01 0.02 0.02 0.02 0.02 0.02 0.03 0.03 0.02 0.02 0.01 0.01 0.01 0.01 0.01 0.01 0.02 0.02 0.03 0.04 0.04 0.04 0.04 0.03 0.03 0.03
0.04 0.03 0.04 0.04 0.03 0.01 0.01 0.01 0.01 0.01 0.01 0.01 0.01 0.01 0.01 0.01 0.01 0.01 0.02 0.02 0.02 0.02 0.01 0.02 0.01 0.01 0.01 0.01 0.01 0.01 0.01 0.01 0.01 0.01 0.01 0.02 0.03 0.04 0.03 0.03 0.02 0.02 0.03
0.05 0.03 0.03 0.04 0.02 0.01 0.01 0.01 0.01 0.01 0.01 0.01 0.01 0.01 0.01 0.01 0.02 0.02 0.02 0.02 0.02 0.02 0.02 0.02 0.01 0.01 0.01 0.01 0.01 0.01 0.01 0.01 0.01 0.01 0.02 0.02 0.03 0.03 0.04 0.03 0.03 0.02 0.02
0.06 0.03 0.02 0.01 0.01 0.01 0.00 0.01 0.01 0.01 0.01 0.01 0.01 0.01 0.02 0.02 0.02 0.02 0.02 0.02 0.02 0.02 0.02 0.02 0.01 0.01 0.01 0.01 0.01 0.01 0.01 0.02 0.02 0.01 0.01 0.01 0.01 0.01 0.02 0.01 0.01 0.01 0.02
0.03 0.03 0.02 0.01 0.01 0.01 0.00 0.00 0.01 0.01 0.01 0.01 0.02 0.03 0.03 0.02 0.02 0.02 0.02 0.02 0.02 0.02 0.01 0.01 0.01 0.01 0.01 0.01 0.01 0.01 0.01 0.01 0.01 0.01 0.01 0.00 0.00 0.00 0.01 0.01 0.01 0.01 0.01
0.02 0.02 0.01 0.01 0.01 0.01 0.00 0.00 0.01 0.01 0.02 0.02 0.02 0.03 0.05 0.04 0.04 0.03 0.02 0.02 0.02 0.02 0.02 0.02 0.02 0.02 0.01 0.01 0.01 0.01 0.01 0.01 0.00 0.01 0.02 0.01 0.00 0.00 0.01 0.01 0.01 0.01 0.01
0.02 0.02 0.01 0.02 0.01 0.01 0.00 0.00 0.01 0.01 0.03 0.03 0.02 0.02 0.03 0.04 0.05 0.04 0.03 0.03 0.02 0.02 0.02 0.02 0.02 0.02 0.01 0.01 0.01 0.00 0.00 0.00 0.01 0.00 0.01 0.02 0.01 0.00 0.00 0.00 0.00 0.00 0.00
0.03 0.03 0.03 0.02 0.01 0.01 0.00 0.00 0.01 0.01 0.02 0.04 0.02 0.02 0.02 0.03 0.05 0.05 0.04 0.03 0.03 0.02 0.02 0.02 0.01 0.01 0.01 0.01 0.01 0.00 0.00 0.00 0.00 0.01 0.01 0.01 0.02 0.01 0.01 0.01 0.01 0.01 0.00
0.03 0.03 0.03 0.02 0.01 0.01 0.01 0.01 0.01 0.01 0.01 0.02 0.02 0.01 0.02 0.02 0.03 0.03 0.02 0.02 0.02 0.01 0.01 0.01 0.01 0.00 0.00 0.01 0.01 0.01 0.01 0.01 0.01 0.01 0.01 0.01 0.02 0.02 0.01 0.01 0.01 0.00 0.00
0.03 0.03 0.03 0.03 0.02 0.01 0.01 0.01 0.01 0.01 0.01 0.01 0.01 0.01 0.00 0.00 0.01 0.01 0.01 0.01 0.01 0.01 0.00 0.00 0.00 0.00 0.00 0.01 0.01 0.01 0.02 0.02 0.01 0.02 0.02 0.02 0.03 0.02 0.02 0.01 0.01 0.01 0.01
0.02 0.02 0.02 0.03 0.02 0.02 0.02 0.01 0.01 0.02 0.01 0.01 0.01 0.01 0.01 0.00 0.00 0.00 0.01 0.00 0.00 0.00 0.00 0.00 0.00 0.00 0.00 0.00 0.01 0.01 0.02 0.01 0.01 0.02 0.03 0.04 0.04 0.03 0.02 0.01 0.02 0.02 0.01
MSLP
1010.62 1010.30 1010.04 1009.83 1009.69 1009.64 1009.69 1009.86 1010.16 1010.56 1011.04 1011.56 1012.05 1012.48 1012.78 1012.95 1012.97 1012.87 1012.69 1012.47 1012.27 1012.12 1012.06 1012.10 1012.24 1012.48 1012.79 1013.15 1013.55 1013.97 1014.38 1014.77 1015.12 1015.40 1015.60 1015.71 1015.71 1015.62 1015.46 1015.27 1015.08 1014.92 1014.83
1010.32 1010.05 1009.84 1009.69 1009.59 1009.57 1009.64 1009.83 1010.15 1010.57 1011.08 1011.62 1012.12 1012.53 1012.80 1012.90 1012.84 1012.64 1012.36 1012.05 1011.78 1011.59 1011.51 1011.55 1011.71 1011.97 1012.30 1012.69 1013.11 1013.54 1013.98 1014.39 1014.78 1015.12 1015.38 1015.55 1015.63 1015.60 1015.50 1015.34 1015.17 1015.02 1014.91
1009.98 1009.78 1009.64 1009.55 1009.51 1009.53 1009.62 1009.82 1010.15 1010.58 1011.09 1011.63 1012.13 1012.52 1012.77 1012.83 1012.72 1012.46 1012.13 1011.78 1011.47 1011.26 1011.17 1011.21 1011.38 1011.65 1011.98 1012.36 1012.77 1013.19 1013.62 1014.05 1014.45 1014.82 1015.13 1015.37 1015.51 1015.55 1015.50 1015.39 1015.24 1015.08 1014.95
1009.61 1009.48 1009.43 1009.42 1009.44 1009.50 1009.62 1009.82 1010.14 1010.56 1011.06 1011.59 1012.08 1012.47 1012.71 1012.77 1012.65 1012.39 1012.05 1011.70 1011.39 1011.19 1011.10 1011.15 1011.31 1011.57 1011.88 1012.23 1012.60 1012.98 1013.37 1013.78 1014.18 1014.56 1014.90 1015.18 1015.37 1015.47 1015.47 1015.38 1015.24 1015.08 1014.92
1009.23 1009.18 1009.22 1009.30 1009.39 1009.50 1009.64 1009.84 1010.14 1010.54 1011.02 1011.53 1012.01 1012.40 1012.66 1012.74 1012.66 1012.44 1012.15 1011.83 1011.56 1011.38 1011.31 1011.36 1011.51 1011.73 1011.99 1012.29 1012.60 1012.92 1013.26 1013.61 1013.98 1014.35 1014.70 1015.00 1015.23 1015.36 1015.38 1015.31 1015.18 1015.01 1014.82
1008.89 1008.93 1009.07 1009.24 1009.41 1009.56 1009.72 1009.92 1010.20 1010.56 1011.00 1011.49 1011.96 1012.37 1012.66 1012.79 1012.77 1012.63 1012.40 1012.15 1011.94 1011.79 1011.74 1011.78 1011.90 1012.08 1012.29 1012.51 1012.74 1012.99 1013.26 1013.55 1013.87 1014.21 1014.54 1014.84 1015.07 1015.21 1015.25 1015.19 1015.06 1014.87 1014.64
1008.64 1008.78 1009.03 1009.30 1009.54 1009.74 1009.92 1010.11 1010.36 1010.68 1011.08 1011.54 1012.00 1012.42 1012.74 1012.93 1012.98 1012.92 1012.77 1012.60 1012.44 1012.33 1012.29 1012.33 1012.42 1012.54 1012.69 1012.83 1012.99 1013.15 1013.34 1013.57 1013.83 1014.12 1014.42 1014.69 1014.90 1015.03 1015.07 1015.01 1014.87 1014.67 1014.42
1008.52 1008.77 1009.13 1009.50 1009.81 1010.07 1010.26 1010.45 1010.67 1010.95 1011.30 1011.72 1012.16 1012.57 1012.92 1013.15 1013.27 1013.28 1013.20 1013.09 1012.98 1012.90 1012.87 1012.88 1012.94 1013.01 1013.10 1013.18 1013.26 1013.35 1013.48 1013.63 1013.83 1014.07 1014.31 1014.54 1014.72 1014.83 1014.86 1014.80 1014.66 1014.44 1014.17
1008.58 1008.94 1009.40 1009.86 1010.25 1010.54 1010.76 1010.94 1011.13 1011.37 1011.68 1012.04 1012.45 1012.84 1013.19 1013.44 1013.59 1013.65 1013.62 1013.55 1013.47 1013.40 1013.36 1013.36 1013.38 1013.41 1013.45 1013.47 1013.50 1013.54 1013.60 1013.70 1013.84 1014.01 1014.20 1014.38 1014.53 1014.61 1014.62 1014.56 1014.41 1014.20 1013.93
1008.79 1009.25 1009.80 1010.33 1010.78 1011.12 1011.36 1011.54 1011.71 1011.91 1012.17 1012.48 1012.84 1013.20 1013.52 1013.76 1013.92 1013.98 1013.97 1013.92 1013.84 1013.77 1013.72 1013.70 1013.69 1013.69 1013.69 1013.68 1013.67 1013.67 1013.69 1013.75 1013.83 1013.95 1014.08 1014.21 1014.32 1014.37 1014.37 1014.30 1014.16 1013.97 1013.71
1009.12 1009.66 1010.27 1010.86 1011.35 1011.72 1011.97 1012.15 1012.31 1012.48 1012.70 1012.97 1013.27 1013.58 1013.86 1014.07 1014.20 1014.24 1014.22 1014.15 1014.07 1013.98 1013.91 1013.87 1013.84 1013.82 1013.80 1013.78 1013.75 1013.73 1013.72 1013.74 1013.79 1013.86 1013.95 1014.03 1014.09 1014.11 1014.09 1014.02 1013.91 1013.74 1013.51
1009.51 1010.08 1010.73 1011.33 1011.84 1012.22 1012.49 1012.69 1012.84 1013.00 1013.19 1013.42 1013.68 1013.93 1014.15 1014.31 1014.40 1014.41 1014.36 1014.27 1014.16 1014.06 1013.97 1013.91 1013.87 1013.84 1013.81 1013.78 1013.75 1013.72 1013.70 1013.70 1013.71 1013.74 1013.78 1013.82 1013.84 1013.84 1013.81 1013.74 1013.64 1013.50 1013.31
1009.88 1010.45 1011.08 1011.67 1012.17 1012.56 1012.84 1013.05 1013.21 1013.38 1013.56 1013.76 1013.98 1014.19 1014.36 1014.47 1014.51 1014.48 1014.40 1014.28 1014.16 1014.04 1013.94 1013.87 1013.82 1013.79 1013.76 1013.73 1013.70 1013.66 1013.63 1013.61 1013.60 1013.60 1013.60 1013.60 1013.59 1013.56 1013.51 1013.43 1013.34 1013.23 1013.08
1010.20 1010.73 1011.30 1011.85 1012.32 1012.70 1012.99 1013.21 1013.40 1013.58 1013.77 1013.97 1014.16 1014.34 1014.47 1014.54 1014.55 1014.49 1014.38 1014.25 1014.11 1013.98 1013.87 1013.80 1013.75 1013.71 1013.68 1013.65 1013.61 1013.57 1013.53 1013.49 1013.46 1013.43 1013.40 1013.36 1013.32 1013.26 1013.19 1013.10 1013.01 1012.92 1012.80
1010.46 1010.91 1011.40 1011.87 1012.30 1012.66 1012.95 1013.20 1013.42 1013.63 1013.84 1014.04 1014.23 1014.39 1014.50 1014.54 1014.53 1014.45 1014.33 1014.19 1014.05 1013.92 1013.82 1013.74 1013.68 1013.64 1013.59 1013.55 1013.50 1013.45 1013.40 1013.34 1013.29 1013.24 1013.18 1013.11 1013.04 1012.95 1012.85 1012.75 1012.64 1012.54 1012.45
1010.70 1011.03 1011.42 1011.82 1012.19 1012.53 1012.82 1013.09 1013.34 1013.58 1013.82 1014.04 1014.23 1014.38 1014.48 1014.51 1014.48 1014.41 1014.29 1014.16 1014.03 1013.90 1013.80 1013.71 1013.64 1013.58 1013.52 1013.46 1013.39 1013.32 1013.25 1013.18 1013.10 1013.03 1012.95 1012.86 1012.75 1012.63 1012.50 1012.36 1012.23 1012.11 1012.01
1010.94 1011.17 1011.46 1011.78 1012.10 1012.41 1012.71 1012.99 1013.27 1013.54 1013.79 1014.02 1014.21 1014.36 1014.45 1014.48 1014.45 1014.38 1014.28 1014.16 1014.04 1013.92 1013.82 1013.72 1013.63 1013.55 1013.46 1013.37 1013.27 1013.17 1013.08 1012.99 1012.90 1012.81 1012.71 1012.60 1012.46 1012.30 1012.13 1011.94 1011.77 1011.61 1011.48
1011.24 1011.38 1011.59 1011.84 1012.12 1012.41 1012.71 1013.00 1013.29 1013.57 1013.83 1014.05 1014.23 1014.37 1014.45 1014.48 1014.45 1014.39 1014.30 1014.19 1014.08 1013.97 1013.86 1013.75 1013.63 1013.51 1013.39 1013.26 1013.13 1013.01 1012.89 1012.78 1012.68 1012.58 1012.46 1012.33 1012.16 1011.96 1011.73 1011.50 1011.26 1011.05 1010.88
1011.62 1011.69 1011.84 1012.05 1012.31 1012.59 1012.88 1013.18 1013.46 1013.73 1013.98 1014.18 1014.34 1014.45 1014.51 1014.52 1014.49 1014.43 1014.34 1014.24 1014.13 1014.02 1013.89 1013.76 1013.61 1013.46 1013.29 1013.12 1012.96 1012.81 1012.67 1012.54 1012.43 1012.32 1012.19 1012.03 1011.83 1011.59 1011.31 1011.01 1010.71 1010.44 1010.20
1012.04 1012.08 1012.20 1012.40 1012.65 1012.92 1013.22 1013.51 1013.78 1014.03 1014.24 1014.40 1014.52 1014.59 1014.61 1014.60 1014.55 1014.48 1014.39 1014.29 1014.17 1014.04 1013.90 1013.73 1013.55 1013.35 1013.14 1012.94 1012.74 1012.56 1012.41 1012.27 1012.14 1012.02 1011.87 1011.68 1011.45 1011.17 1010.84 1010.47 1010.11 1009.77 1009.48
1012.44 1012.48 1012.62 1012.83 1013.08 1013.37 1013.66 1013.94 1014.19 1014.40 1014.57 1014.68 1014.75 1014.76 1014.74 1014.69 1014.62 1014.53 1014.42 1014.30 1014.17 1014.01 1013.84 1013.64 1013.42 1013.18 1012.94 1012.69 1012.47 1012.27 1012.09 1011.94 1011.81 1011.66 1011.49 1011.28 1011.01 1010.68 1010.30 1009.88 1009.45 1009.05 1008.71
1012.76 1012.83 1013.00 1013.24 1013.52 1013.82 1014.12 1014.39 1014.62 1014.79 1014.91 1014.97 1014.97 1014.94 1014.87 1014.77 1014.66 1014.54 1014.41 1014.26 1014.10 1013.92 1013.71 1013.47 1013.21 1012.93 1012.65 1012.38 1012.13 1011.91 1011.72 1011.56 1011.40 1011.24 1011.05 1010.80 1010.50 1010.12 1009.69 1009.22 1008.75 1008.30 1007.91
1012.91 1013.03 1013.25 1013.54 1013.86 1014.19 1014.50 1014.76 1014.97 1015.12 1015.19 1015.20 1015.16 1015.07 1014.96 1014.82 1014.67 1014.51 1014.35 1014.17 1013.97 1013.75 1013.50 1013.22 1012.92 1012.61 1012.30 1012.01 1011.74 1011.50 1011.30 1011.11 1010.94 1010.75 1010.53 1010.25 1009.91 1009.50 1009.03 1008.52 1008.01 1007.53 1007.11
1012.86 1013.04 1013.32 1013.66 1014.03 1014.40 1014.73 1015.00 1015.20 1015.33 1015.37 1015.35 1015.27 1015.15 1015.00 1014.82 1014.64 1014.45 1014.24 1014.02 1013.78 1013.52 1013.22 1012.91 1012.57 1012.23 1011.89 1011.57 1011.29 1011.03 1010.81 1010.61 1010.42 1010.21 1009.96 1009.65 1009.28 1008.84 1008.34 1007.81 1007.27 1006.78 1006.35
1012.59 1012.85 1013.19 1013.59 1014.01 1014.42 1014.78 1015.07 1015.27 1015.40 1015.43 1015.40 1015.30 1015.16 1014.99 1014.79 1014.58 1014.35 1014.11 1013.85 1013.56 1013.25 1012.92 1012.56 1012.18 1011.81 1011.45 1011.11 1010.81 1010.54 1010.30 1010.08 1009.86 1009.63 1009.35 1009.02 1008.63 1008.17 1007.66 1007.13 1006.60 1006.10 1005.67
1012.15 1012.47 1012.88 1013.34 1013.81 1014.26 1014.65 1014.97 1015.20 1015.34 1015.39 1015.36 1015.27 1015.12 1014.94 1014.73 1014.50 1014.25 1013.97 1013.67 1013.35 1012.99 1012.61 1012.21 1011.80 1011.40 1011.01 1010.65 1010.33 1010.04 1009.78 1009.55 1009.31 1009.06 1008.77 1008.42 1008.02 1007.56 1007.06 1006.54 1006.02 1005.55 1005.13
Thickness
5733 5733 5731 5730 5728 5725 5723 5719 5715 5711 5708 5705 5701 5696 5693 5690 5688 5686 5683 5681 5678 5677 5675 5672 5670 5668 5665 5663 5662 5659 5658 5656 5655 5652 5651 5651 5651 5652 5653 5653 5653 5654 5655
5727 5727 5725 5723 5721 5719 5716 5713 5710 5707 5705 5701 5697 5692 5688 5685 5681 5679 5677 5674 5672 5670 5668 5666 5664 5662 5659 5657 5655 5653 5650 5649 5647 5644 5641 5641 5642 5644 5646 5646 5646 5646 5648
5721 5721 5720 5718 5715 5713 5710 5708 5705 5702 5699 5695 5691 5687 5682 5678 5675 5672 5670 5668 5666 5664 5661 5659 5657 5655 5653 5651 5649 5647 5644 5641 5639 5638 5635 5632 5633 5634 5636 5637 5639 5639 5641
5717 5716 5715 5712 5709 5707 5705 5702 5699 5696 5692 5689 5685 5681 5676 5671 5669 5665 5663 5661 5659 5657 5654 5652 5649 5648 5646 5643 5641 5640 5637 5634 5632 5631 5629 5628 5628 5626 5628 5630 5632 5633 5634
5713 5711 5710 5708 5705 5702 5698 5695 5692 5689 5687 5682 5679 5674 5670 5666 5662 5659 5657 5655 5653 5651 5649 5645 5642 5640 5638 5636 5634 5632 5630 5628 5626 5624 5623 5621 5620 5620 5619 5622 5625 5626 5628
5708 5706 5704 5702 5699 5696 5693 5689 5686 5683 5680 5676 5673 5669 5665 5661 5657 5653 5651 5648 5646 5645 5643 5640 5637 5634 5631 5630 5628 5626 5624 5622 5621 5619 5617 5616 5615 5615 5614 5615 5617 5619 5622
5703 5700 5698 5695 5693 5690 5687 5684 5680 5676 5673 5670 5667 5664 5659 5655 5651 5648 5645 5642 5640 5638 5636 5633 5630 5628 5626 5624 5622 5620 5618 5616 5615 5614 5612 5611 5610 5610 5610 5609 5610 5612 5614
5698 5696 5694 5691 5688 5685 5682 5679 5675 5671 5668 5664 5661 5658 5654 5650 5646 5643 5640 5637 5635 5633 5631 5628 5625 5623 5620 5619 5617 5615 5613 5611 5609 5609 5607 5606 5605 5605 5605 5604 5604 5604 5607
5693 5691 5688 5686 5682 5679 5676 5673 5670 5666 5662 5659 5655 5652 5648 5645 5641 5637 5635 5633 5630 5628 5625 5622 5620 5618 5616 5614 5612 5609 5608 5606 5604 5603 5601 5600 5600 5599 5599 5600 5599 5599 5600
5687 5684 5682 5679 5676 5674 5671 5668 5665 5661 5657 5653 5650 5646 5643 5640 5636 5633 5630 5627 5625 5622 5620 5617 5615 5613 5611 5609 5606 5604 5602 5600 5599 5597 5596 5595 5595 5594 5594 5595 5595 5594 5595
5682 5679 5677 5674 5671 5668 5665 5662 5658 5655 5651 5647 5644 5641 5637 5634 5631 5628 5625 5622 5619 5616 5614 5612 5610 5608 5606 5603 5601 5599 5597 5595 5594 5592 5591 5590 5590 5590 5589 5589 5589 5589 5589
5677 5674 5671 5667 5664 5661 5659 5656 5653 5649 5646 5642 5639 5635 5632 5629 5626 5622 5619 5616 5613 5611 5609 5607 5605 5603 5601 5598 5596 5594 5592 5590 5588 5587 5585 5585 5585 5584 5584 5584 5584 5584 5584
5672 5668 5664 5661 5658 5656 5653 5651 5648 5644 5641 5638 5633 5629 5626 5623 5620 5617 5614 5611 5608 5606 5604 5602 5600 5598 5596 5593 5591 5588 5586 5584 5583 5582 5581 5580 5580 5579 5579 5579 5579 5579 5579
5667 5663 5659 5657 5654 5651 5649 5646 5643 5640 5637 5633 5629 5624 5621 5617 5615 5612 5610 5607 5604 5602 5600 5598 5596 5594 5591 5589 5586 5584 5582 5580 5579 5578 5577 5576 5576 5575 5575 5575 5574 5574 5573
5664 5660 5656 5653 5649 5646 5644 5641 5639 5636 5633 5629 5624 5621 5617 5613 5611 5609 5606 5603 5601 5599 5597 5595 5592 5590 5588 5585 5582 5580 5579 5577 5576 5575 5574 5573 5573 5572 5571 5572 5570 5569 5568
5661 5658 5654 5650 5646 5643 5640 5637 5635 5633 5629 5625 5621 5618 5614 5611 5609 5606 5603 5601 5598 5596 5594 5592 5589 5587 5585 5582 5580 5577 5575 5574 5572 5571 5571 5571 5570 5570 5569 5568 5567 5566 5564
5659 5655 5651 5647 5643 5640 5637 5634 5632 5629 5626 5622 5619 5616 5612 5609 5606 5604 5601 5598 5596 5593 5591 5589 5587 5584 5582 5580 5578 5575 5573 5571 5569 5568 5567 5568 5568 5566 5565 5565 5564 5564 5563
5656 5652 5647 5643 5640 5638 5635 5632 5629 5626 5623 5619 5616 5614 5610 5608 5604 5601 5599 5596 5593 5591 5588 5586 5584 5581 5580 5578 5575 5573 5571 5569 5567 5566 5565 5564 5564 5563 5562 5562 5562 5561 5561
5653 5649 5645 5642 5638 5635 5632 5628 5625 5622 5619 5616 5613 5611 5608 5605 5602 5600 5597 5594 5591 5588 5586 5584 5582 5579 5578 5576 5574 5571 5569 5567 5566 5565 5564 5562 5561 5560 5558 5558 5558 5558 5559
5648 5645 5642 5638 5635 5632 5629 5625 5622 5619 5617 5615 5612 5609 5607 5604 5601 5598 5596 5593 5589 5587 5584 5582 5580 5578 5576 5575 5572 5569 5567 5565 5564 5563 5562 5560 5559 5557 5556 5555 5554 5554 5556
5643 5641 5638 5635 5633 5630 5626 5623 5621 5618 5617 5614 5611 5609 5606 5603 5600 5597 5594 5591 5588 5585 5583 5581 5579 5577 5576 5574 5572 5569 5566 5564 5563 5562 5561 5560 5558 5556 5554 5552 5551 5551 5551
5639 5638 5635 5633 5630 5627 5624 5622 5619 5618 5615 5613 5610 5608 5605 5603 5600 5596 5593 5590 5586 5583 5581 5580 5578 5578 5575 5573 5571 5569 5566 5563 5561 5560 5560 5558 5556 5554 5552 5551 5550 5549 5548
5636 5634 5633 5630 5627 5625 5623 5621 5619 5617 5614 5611 5608 5606 5603 5600 5598 5595 5591 5589 5586 5583 5581 5578 5577 5577 5576 5574 5571 5569 5566 5563 5560 5559 5558 5557 5555 5554 5553 5552 5550 5548 5547
5633 5632 5629 5628 5625 5624 5623 5621 5619 5616 5612 5609 5606 5604 5601 5599 5597 5594 5591 5588 5586 5583 5582 5579 5578 5577 5575 5574 5572 5569 5566 5563 5561 5559 5557 5556 5554 5552 5551 5551 5550 5549 5547
5632 5630 5628 5626 5625 5623 5622 5621 5618 5615 5611 5608 5605 5603 5600 5598 5596 5593 5591 5589 5588 5585 5582 5581 5578 5576 5575 5574 5570 5566 5564 5561 5558 5556 5555 5554 5553 5552 5551 5550 5549 5547 5546
5631 5628 5626 5625 5624 5623 5621 5620 5618 5615 5611 5608 5605 5602 5599 5597 5595 5593 5591 5591 5589 5587 5585 5582 5578 5577 5574 5572 5569 5566 5563 5559 5555 5552 5551 5551 5549 5548 5547 5546 5546 5545 5544